Weather History for KPIH - February, 2013

Change the Weather History Date:

Tuesday, February 12, 2013

  Actual Average Record
Temperature  
Mean Temperature 27 °F 27 °F  
Max Temperature 33 °F 36 °F 57 °F (2015)
Min Temperature 21 °F 18 °F -13 °F (1949)
Degree Days  
Heating Degree Days 38 38  
Month to date heating degree days 419 466  
Since 1 July heating degree days 4527 4713  
Cooling Degree Days 0 0  
Month to date cooling degree days 0 0  
Year to date cooling degree days 0 0  
Moisture  
Dew Point 18 °F    
Average Humidity 66    
Maximum Humidity 77    
Minimum Humidity 54    
Precipitation  
Precipitation 0.00 in 0.03 in 0.47 in (1941)
Month to date precipitation 0.09 0.38  
Year to date precipitation 0.66 1.37  
Snow  
Snow 0.00 in - - ()
Month to date snowfall 1.8  
Since 1 July snowfall 28.4  
Snow Depth T in    
Sea Level Pressure  
Sea Level Pressure 30.35 in    
Wind  
Wind Speed 10 mph (South)    
Max Wind Speed 17 mph    
Max Gust Speed 22 mph    
Visibility 10 miles    
Events      
T = Trace of Precipitation, MM = Missing Value Source: NWS Daily Summary

Daily Weather History Graph

Daily Weather History Graph

Search for Another Location

Airport or City:

Trip Planner

Search our weather history database for the weather conditions in past years. The results will help you decide how hot, cold, wet, or windy it might be!

Date:

Astronomy

Feb. 12, 2013 Rise Set
Actual Time 7:31 AM MST 5:58 PM MST
Civil Twilight 7:02 AM MST 6:27 PM MST
Nautical Twilight 6:28 AM MST 7:00 PM MST
Astronomical Twilight 5:55 AM MST 7:33 PM MST
Moon 8:25 AM MST (2/12) 9:09 PM MST (2/12)
Length of Visible Light 11h 25m
Length of Day
10h 26m
Waxing Crescent, 8% of the Moon is Illuminated
Feb 12
Waxing Crescent
Feb 17
First Quarter
Feb 25
Full
Mar 4
Last Quarter
Mar 11
New

Hourly Weather History & Observations

Time (MST) Temp. Windchill Dew Point Humidity Pressure Visibility Wind Dir Wind Speed Gust Speed Precip Events Conditions
12:53 AM 23.0 °F 17.0 °F 14.0 °F 68% 30.32 in 10.0 mi East 4.6 mph - N/A   Overcast
1:53 AM 21.9 °F 15.7 °F 15.1 °F 75% 30.32 in 10.0 mi NW 4.6 mph - N/A   Overcast
2:53 AM 23.0 °F 17.0 °F 14.0 °F 68% 30.31 in 10.0 mi NNW 4.6 mph - N/A   Overcast
3:53 AM 23.0 °F 18.4 °F 12.9 °F 65% 30.31 in 10.0 mi NNE 3.5 mph - N/A   Overcast
4:53 AM 23.0 °F 17.0 °F 12.9 °F 65% 30.32 in 10.0 mi East 4.6 mph - N/A   Overcast
5:53 AM 23.0 °F 15.8 °F 12.9 °F 65% 30.34 in 10.0 mi East 5.8 mph - N/A   Overcast
6:53 AM 23.0 °F 14.7 °F 12.0 °F 63% 30.35 in 10.0 mi ENE 6.9 mph - N/A   Overcast
7:53 AM 23.0 °F 13.1 °F 12.0 °F 63% 30.36 in 10.0 mi NE 9.2 mph - N/A   Mostly Cloudy
8:53 AM 24.1 °F 18.2 °F 14.0 °F 65% 30.39 in 10.0 mi Variable 4.6 mph - N/A   Mostly Cloudy
9:53 AM 26.1 °F 20.5 °F 12.9 °F 58% 30.39 in 10.0 mi East 4.6 mph - N/A   Mostly Cloudy
10:53 AM 30.9 °F 21.2 °F 17.1 °F 57% 30.40 in 10.0 mi South 12.7 mph - N/A   Mostly Cloudy
11:53 AM 32.0 °F 21.6 °F 18.0 °F 56% 30.39 in 10.0 mi South 15.0 mph - N/A   Mostly Cloudy
12:53 PM 33.1 °F 24.4 °F 19.0 °F 56% 30.36 in 10.0 mi SSW 11.5 mph - N/A   Mostly Cloudy
1:53 PM 32.0 °F 22.5 °F 19.0 °F 59% 30.36 in 10.0 mi South 12.7 mph - N/A   Mostly Cloudy
1:56 PM 32.0 °F 22.5 °F 19.4 °F 60% 30.26 in 10.0 mi South 12.7 mph - N/A   Overcast
2:53 PM 30.9 °F 20.2 °F 19.0 °F 61% 30.36 in 10.0 mi South 15.0 mph - N/A   Overcast
3:53 PM 30.9 °F 21.7 °F 19.9 °F 64% 30.37 in 10.0 mi South 11.5 mph - N/A   Overcast
4:53 PM 30.9 °F 21.2 °F 19.9 °F 64% 30.35 in 10.0 mi South 12.7 mph - N/A   Overcast
5:53 PM 30.0 °F 19.1 °F 21.0 °F 69% 30.35 in 10.0 mi SSW 15.0 mph - N/A   Mostly Cloudy
6:53 PM 30.0 °F 20.0 °F 21.9 °F 72% 30.38 in 10.0 mi SSW 12.7 mph - N/A   Overcast
7:53 PM 30.9 °F 22.2 °F 23.0 °F 72% 30.38 in 10.0 mi South 10.4 mph - N/A   Overcast
8:53 PM 30.9 °F 21.7 °F 23.0 °F 72% 30.38 in 10.0 mi South 11.5 mph - N/A   Overcast
9:53 PM 30.9 °F 20.2 °F 21.9 °F 69% 30.38 in 10.0 mi South 15.0 mph - N/A   Overcast
10:53 PM 30.9 °F 21.2 °F 21.9 °F 69% 30.36 in 10.0 mi South 12.7 mph - N/A   Overcast
11:53 PM 30.0 °F 19.5 °F 21.0 °F 69% 30.35 in 10.0 mi SSW 13.8 mph - N/A   Overcast